Weather in Ribe

Denmark     55°20′11″N   8°46′41″E
temp.,
°C
wind,
m/s
gust,
m/s
humid.,
%
clouds,
%
prec.,
mm/h
press.,
hPa
HPBL,
m
4 july, mon
mon423:00+14wnw348779 0.5 1015109
02:00+14w46845 1.1 1015155
05:00+14w58875 0.2 1015244
08:00+16wsw7984100 0.6 1015787
11:00+17wsw81076100 1.1 10161089
14:00+18wsw9116495 1.6 10161331
17:00+17wsw91274100 0.5 10161271
20:00+15w8117860 1.7 1016808
5 july, tue
tue523:00+14w711747 0.1 1017484
02:00+14wsw6107314 0.2 1017446
05:00+14wsw7107778 0.3 1016361
08:00+15w69809 1.5 1017473
11:00+17w8106535 0.3 10181272
14:00+17wnw786776 0.9 10191181
17:00+17w896579 0.3 10191309
20:00+15wnw81074100 0.6 1019886
6 july, wed
wed623:00+14wnw6968100 0.3 1020632
02:00+14wnw81167100 0.6 1020657
05:00+14wnw7106195 0.2 1020925
08:00+15wnw796528 0.2 10201354
11:00+16w7965100 0.0 10201232
14:00+15sw91286100 0.8 1018850
17:00+16wsw81191100 0.7 1016759
20:00+16wsw71094100 3.1 1014602
7 july, thu
thu723:00+16wnw7119089 1.3 1014543
02:00+16w6994100 2.2 1013445
05:00+15nw61090100 3.4 1012544
08:00+15nnw913834 3.6 1013789
11:00+16nw1214645 0.0 10151301
14:00+17nw12146476 0.0 10171320
17:00+17nw11126782 0.0 10181177
20:00+15nw1012741 0.0 1020895
8 july, fri
fri823:00+14nnw913790 0.0 1022663
02:00+13nnw712805 0.0 1023513
05:00+13nnw611765 0.0 1024434
08:00+16nw710754 0.0 1025870
11:00+17nw71183100 0.1 1025888
14:00+18wnw8117271 0.4 10251085
17:00+17nw91172100 0.1 10261196
20:00+15nw101368100 0.2 10251246